{"data":{"norad_id":68044,"intl_designator":"2026-041E","name":"STARLINK-36966","alt_names":[],"object_type":"PAYLOAD","status":"ACTIVE","operator":null,"country":"US","launch_date":"2026-03-02","launch_site_code":"AFETR","launch_vehicle":null,"mission":null,"orbit_class":"UNKNOWN","rcs_meters":null,"size_class":null,"mass_kg":null,"dimensions":null,"purposes":["comms"],"wikipedia_slug":null,"has_3d_model":false,"image_url":null,"decayed_at":null,"tle_current":{"epoch":"2026-09-20T03:01:59.699424Z","epoch_age_seconds":91827,"freshness":"FRESH","line1":"1 68044U 26041E   26263.12638541  .00011912  00000+0  36305-3 0  9997","line2":"2 68044  53.1574 221.3379 0001306  93.7057 266.4095 15.34406397 31230","mean_motion":15.34406397,"eccentricity":0.0001306,"inclination_deg":53.1574,"raan_deg":221.3379,"arg_perigee_deg":93.7057,"mean_anomaly_deg":266.4095,"bstar":0.00036305,"rev_number":3123,"period_min":93.847366826378,"perigee_km":461.7908157888,"apogee_km":463.57763829331,"semimajor_km":6840.8212270411,"source":"CELESTRAK","updated_at":"2026-09-20T09:00:43.747695Z"}}}